Weather History for Havre, MT

Change the Weather History Date:

Friday, April 12, 2013

  Actual Average Record
Temperature  
Mean Temperature 39 °F 43 °F  
Max Temperature 48 °F 57 °F 80 °F (1976)
Min Temperature 30 °F 30 °F 0 °F (1899)
Degree Days  
Heating Degree Days 26 22  
Month to date heating degree days 296 282  
Since 1 July heating degree days 7159 7400  
Cooling Degree Days 0 0  
Month to date cooling degree days 0 0  
Year to date cooling degree days 0 0  
Moisture  
Dew Point 28 °F    
Average Humidity 65    
Maximum Humidity 92    
Minimum Humidity 37    
Precipitation  
Precipitation 0.07 in 0.02 in 0.29 in (1968)
Month to date precipitation 0.31 0.27  
Year to date precipitation 2.23 1.42  
Snow  
Snow 0.30 in 0.10 in 4.10 in (1986)
Month to date snowfall 0.3 1.7  
Since 1 July snowfall 47.3 35.9  
Snow Depth T in    
Sea Level Pressure  
Sea Level Pressure 30.00 in    
Wind  
Wind Speed 10 mph (NW)    
Max Wind Speed 23 mph    
Max Gust Speed 31 mph    
Visibility 8 miles    
Events Rain , Snow    
T = Trace of Precipitation, MM = Missing Value Source: NWS Daily Summary

Daily Weather History Graph

Daily Weather History Graph

Search for Another Location

Airport:

Trip Planner

Search our weather history database for the weather conditions in past years. The results will help you decide how hot, cold, wet, or windy it might be!

Date:

Astronomy

Apr. 12, 2013 Rise Set
Actual Time 6:33 AM MDT 8:06 PM MDT
Civil Twilight 6:01 AM MDT 8:39 PM MDT
Nautical Twilight 5:21 AM MDT 9:19 PM MDT
Astronomical Twilight 4:38 AM MDT 10:02 PM MDT
Moon 7:35 AM MDT (4/12) 10:52 PM MDT (4/12)
Length of Visible Light 14h 38m
Length of Day
13h 32m
Waxing Crescent, 5% of the Moon is Illuminated
Apr 12
Waxing Crescent
Apr 18
First Quarter
Apr 25
Full
May 2
Last Quarter
May 9
New

Hourly Weather History & Observations

Time (MDT) Temp. Windchill Dew Point Humidity Pressure Visibility Wind Dir Wind Speed Gust Speed Precip Events Conditions
12:00 AM 37.4 °F 26.1 °F 35.6 °F 93% 29.89 in - North 24.2 mph 28.8 mph 0.00 in Rain Light Rain
12:15 AM 33.8 °F 21.3 °F 32.0 °F 93% 29.90 in 2.5 mi North 24.2 mph 28.8 mph 0.02 in Snow Light Snow
12:26 AM 33.8 °F 20.5 °F 30.2 °F 87% 29.91 in 1.2 mi North 27.6 mph 32.2 mph 0.03 in Snow Light Snow
12:36 AM 33.8 °F 22.5 °F 30.2 °F 87% 29.92 in 1.0 mi North 19.6 mph 32.2 mph 0.05 in Snow Light Snow
12:53 AM 33.1 °F 23.0 °F 30.9 °F 92% 29.98 in 1.0 mi North 15.0 mph 29.9 mph 0.07 in Snow Light Snow
1:53 AM 33.1 °F 22.6 °F 30.9 °F 92% 30.01 in 2.0 mi North 16.1 mph 26.5 mph 0.04 in Snow Light Snow
2:03 AM 33.8 °F 22.2 °F 30.2 °F 87% 29.97 in 4.0 mi North 20.7 mph 26.5 mph 0.00 in Snow Light Snow
2:11 AM 33.8 °F 22.2 °F 30.2 °F 87% 29.97 in 1.8 mi NNE 20.7 mph 26.5 mph 0.00 in Snow Light Snow
2:19 AM 33.8 °F 23.2 °F 30.2 °F 87% 29.97 in 1.0 mi NNE 17.3 mph 26.5 mph 0.00 in Snow Light Snow
2:26 AM 33.8 °F 24.3 °F 30.2 °F 87% 29.98 in 1.0 mi North 13.8 mph 25.3 mph 0.01 in Snow Light Snow
2:31 AM 33.8 °F 24.3 °F 30.2 °F 87% 29.98 in 1.0 mi North 13.8 mph - 0.01 in Snow Light Snow
2:53 AM 33.1 °F 25.5 °F 30.9 °F 92% 30.03 in 1.2 mi North 9.2 mph - 0.03 in Snow Light Snow
3:00 AM 33.8 °F 27.0 °F 30.2 °F 87% 29.99 in 1.8 mi NNW 8.1 mph - 0.00 in Snow Light Snow
3:19 AM 33.8 °F 26.4 °F 30.2 °F 87% 30.00 in 2.0 mi NW 9.2 mph - 0.01 in Snow Light Snow
3:31 AM 33.8 °F 27.0 °F 30.2 °F 87% 30.00 in 5.0 mi NW 8.1 mph - 0.01 in Snow Light Snow
3:43 AM 33.8 °F 27.7 °F 30.2 °F 87% 30.00 in 7.0 mi NW 6.9 mph - 0.01 in Snow Light Snow
3:53 AM 33.1 °F 27.7 °F 30.9 °F 92% 30.04 in 10.0 mi NW 5.8 mph - 0.01 in   Overcast
4:25 AM 33.8 °F 30.8 °F 30.2 °F 87% 30.01 in 10.0 mi WNW 3.5 mph - N/A   Overcast
4:53 AM 32.0 °F 26.4 °F 30.9 °F 96% 30.07 in 10.0 mi WSW 5.8 mph - N/A   Overcast
5:36 AM 30.2 °F 19.3 °F 28.4 °F 93% 30.04 in 10.0 mi NW 15.0 mph 18.4 mph N/A   Mostly Cloudy
5:44 AM 30.2 °F 18.9 °F 28.4 °F 93% 30.04 in 10.0 mi NW 16.1 mph - N/A   Overcast
5:53 AM 30.0 °F 17.9 °F 28.0 °F 92% 30.10 in 10.0 mi NNW 18.4 mph 25.3 mph N/A   Overcast
6:53 AM 32.0 °F 22.1 °F 28.9 °F 88% 30.12 in 10.0 mi NW 13.8 mph - N/A   Overcast
7:53 AM 30.9 °F 21.2 °F 28.0 °F 89% 30.14 in 10.0 mi NW 12.7 mph - N/A   Overcast
8:53 AM 32.0 °F 24.8 °F 28.9 °F 88% 30.15 in - West 8.1 mph - N/A   Mostly Cloudy
9:00 AM 32.0 °F 25.6 °F 28.4 °F 87% 30.09 in - WSW 6.9 mph - N/A   Scattered Clouds
9:10 AM 32.0 °F 25.6 °F 28.4 °F 87% 30.08 in - West 6.9 mph - N/A   Mostly Cloudy
9:21 AM 32.0 °F 24.8 °F 30.2 °F 93% 30.08 in 10.0 mi WSW 8.1 mph - N/A   Mostly Cloudy
9:39 AM 32.0 °F 26.4 °F 28.4 °F 87% 30.08 in 10.0 mi SW 5.8 mph - N/A   Scattered Clouds
9:46 AM 32.0 °F 24.8 °F 28.4 °F 87% 30.08 in 10.0 mi SW 8.1 mph - N/A   Mostly Cloudy
9:53 AM 32.0 °F 24.2 °F 28.9 °F 88% 30.15 in 10.0 mi SW 9.2 mph - N/A   Mostly Cloudy
10:03 AM 33.8 °F 27.7 °F 30.2 °F 87% 30.08 in 10.0 mi WSW 6.9 mph - N/A   Overcast
10:50 AM 35.6 °F 28.0 °F 30.2 °F 81% 30.07 in 10.0 mi SW 10.4 mph - N/A   Mostly Cloudy
10:53 AM 35.1 °F 26.9 °F 30.9 °F 85% 30.13 in 10.0 mi SW 11.5 mph - N/A   Mostly Cloudy
11:53 AM 39.0 °F 32.8 °F 33.1 °F 79% 30.11 in 10.0 mi WSW 9.2 mph - N/A   Mostly Cloudy
12:17 PM 39.2 °F 33.6 °F 30.2 °F 70% 30.04 in 10.0 mi WSW 8.1 mph - N/A   Partly Cloudy
12:53 PM 43.0 °F 37.7 °F 26.1 °F 51% 30.09 in 10.0 mi WSW 9.2 mph - N/A   Partly Cloudy
1:53 PM 44.1 °F - 19.9 °F 38% 30.06 in 10.0 mi Calm Calm - N/A   Scattered Clouds
2:53 PM 45.0 °F 42.6 °F 19.0 °F 36% 30.03 in 10.0 mi South 4.6 mph - N/A   Overcast
3:53 PM 46.0 °F 41.9 °F 23.0 °F 40% 29.99 in 10.0 mi SE 8.1 mph - N/A   Scattered Clouds
4:53 PM 46.0 °F 43.9 °F 24.1 °F 42% 29.96 in 10.0 mi East 4.6 mph - N/A   Clear
5:53 PM 46.0 °F 41.9 °F 24.1 °F 42% 29.92 in 10.0 mi ESE 8.1 mph - N/A   Clear
6:53 PM 45.0 °F 40.1 °F 24.1 °F 44% 29.88 in 10.0 mi East 9.2 mph - N/A   Clear
7:53 PM 42.1 °F 35.7 °F 26.1 °F 53% 29.85 in 10.0 mi East 11.5 mph - N/A   Clear
8:53 PM 39.0 °F 31.4 °F 26.1 °F 60% 29.83 in 10.0 mi ESE 12.7 mph - N/A   Clear
9:53 PM 39.0 °F 31.0 °F 24.1 °F 55% 29.80 in 10.0 mi East 13.8 mph - N/A   Clear
10:53 PM 37.9 °F 30.0 °F 24.1 °F 57% 29.75 in 10.0 mi East 12.7 mph - N/A   Partly Cloudy
11:53 PM 39.0 °F 32.3 °F 23.0 °F 53% 29.71 in 10.0 mi East 10.4 mph - N/A   Overcast